LVMSA SADF-SAAR

Flight info

Callsign LVMSA
Flight time 1h 20m
Altitude 6000
Route DCT ATOVO W5
Aircraft BE36/L-S/C

Departure

Time 2026-05-06 23:28
Airport San Fernando Airport (SADF)

Arrival

Time 2026-05-07 00:48
Airport Rosario Islas Malvinas International Airport (SAAR)
Time Latitude Longitude Altitude Speed Heading
2026-05-06 23:12 -34.45935 -58.59265 9 ft 0 kts 62°
2026-05-06 23:21 -34.45934 -58.59265 9 ft 0 kts 62°
2026-05-06 23:21 -34.45914 -58.59269 9 ft 6 kts 332°
2026-05-06 23:22 -34.45905 -58.59313 9 ft 7 kts 243°
2026-05-06 23:22 -34.45935 -58.59381 9 ft 10 kts 243°
2026-05-06 23:22 -34.45973 -58.59471 9 ft 13 kts 243°
2026-05-06 23:22 -34.46018 -58.59577 9 ft 14 kts 243°
2026-05-06 23:23 -34.46025 -58.59594 9 ft 0 kts 247°
2026-05-06 23:26 -34.46029 -58.59610 9 ft 7 kts 256°
2026-05-06 23:26 -34.45983 -58.59676 9 ft 14 kts 353°
2026-05-06 23:27 -34.45863 -58.59564 9 ft 43 kts 44°
2026-05-06 23:27 -34.45528 -58.59172 14 ft 82 kts 43°
2026-05-06 23:27 -34.45088 -58.58659 102 ft 90 kts 44°
2026-05-06 23:27 -34.44664 -58.58134 340 ft 86 kts 42°
2026-05-06 23:28 -34.44279 -58.57563 469 ft 90 kts 49°
2026-05-06 23:28 -34.43899 -58.56950 631 ft 88 kts 46°
2026-05-06 23:28 -34.43567 -58.56331 800 ft 87 kts 49°
2026-05-06 23:28 -34.43261 -58.55705 971 ft 86 kts 50°
2026-05-06 23:29 -34.42978 -58.55076 1144 ft 84 kts 49°
2026-05-06 23:29 -34.42724 -58.54438 1308 ft 84 kts 49°
2026-05-06 23:29 -34.42486 -58.53799 1475 ft 79 kts 42°
2026-05-06 23:29 -34.42099 -58.53497 1637 ft 63 kts 355°
2026-05-06 23:30 -34.41642 -58.53554 1723 ft 69 kts 349°
2026-05-06 23:30 -34.41142 -58.53646 1811 ft 74 kts 349°
2026-05-06 23:30 -34.40618 -58.53739 1886 ft 80 kts 349°
2026-05-06 23:30 -34.40047 -58.53842 1968 ft 86 kts 349°
2026-05-06 23:31 -34.39447 -58.53958 2081 ft 87 kts 348°
2026-05-06 23:31 -34.38840 -58.54066 2214 ft 87 kts 348°
2026-05-06 23:31 -34.38246 -58.54156 2377 ft 84 kts 348°
2026-05-06 23:31 -34.37667 -58.54232 2539 ft 82 kts 348°
2026-05-06 23:32 -34.37103 -58.54297 2705 ft 79 kts 348°
2026-05-06 23:32 -34.36689 -58.54666 2887 ft 78 kts 311°
2026-05-06 23:32 -34.36363 -58.55143 3052 ft 72 kts 317°
2026-05-06 23:32 -34.36039 -58.55599 3189 ft 72 kts 317°
2026-05-06 23:33 -34.35702 -58.56071 3316 ft 75 kts 317°
2026-05-06 23:33 -34.35355 -58.56555 3447 ft 77 kts 317°
2026-05-06 23:33 -34.34987 -58.57048 3570 ft 81 kts 317°
2026-05-06 23:33 -34.34604 -58.57565 3699 ft 83 kts 317°
2026-05-06 23:34 -34.34202 -58.58093 3825 ft 85 kts 317°
2026-05-06 23:34 -34.33798 -58.58626 3950 ft 87 kts 316°
2026-05-06 23:34 -34.33392 -58.59169 4072 ft 88 kts 317°
2026-05-06 23:34 -34.32971 -58.59721 4198 ft 89 kts 317°
2026-05-06 23:35 -34.32552 -58.60262 4324 ft 89 kts 317°
2026-05-06 23:35 -34.32121 -58.60808 4448 ft 90 kts 317°
2026-05-06 23:35 -34.31690 -58.61357 4567 ft 89 kts 317°
2026-05-06 23:35 -34.31264 -58.61897 4689 ft 88 kts 317°
2026-05-06 23:36 -34.30848 -58.62433 4810 ft 87 kts 317°
2026-05-06 23:36 -34.30430 -58.62970 4933 ft 87 kts 317°
2026-05-06 23:36 -34.30039 -58.63524 5057 ft 86 kts 312°
2026-05-06 23:36 -34.29694 -58.64121 5173 ft 86 kts 312°
2026-05-06 23:37 -34.29363 -58.64720 5293 ft 86 kts 310°
2026-05-06 23:37 -34.29031 -58.65319 5414 ft 85 kts 311°
2026-05-06 23:37 -34.28701 -58.65914 5535 ft 84 kts 311°
2026-05-06 23:37 -34.28368 -58.66499 5585 ft 89 kts 311°
2026-05-06 23:38 -34.27987 -58.67152 5589 ft 97 kts 310°
2026-05-06 23:38 -34.27587 -58.67824 5586 ft 101 kts 311°
2026-05-06 23:38 -34.27171 -58.68523 5578 ft 103 kts 310°
2026-05-06 23:38 -34.26746 -58.69224 5579 ft 104 kts 311°
2026-05-06 23:39 -34.26316 -58.69935 5578 ft 105 kts 310°
2026-05-06 23:39 -34.25885 -58.70649 5580 ft 105 kts 310°
2026-05-06 23:39 -34.25449 -58.71370 5582 ft 105 kts 311°
2026-05-06 23:39 -34.25020 -58.72091 5580 ft 105 kts 311°
2026-05-06 23:40 -34.24593 -58.72804 5583 ft 106 kts 311°
2026-05-06 23:40 -34.24157 -58.73535 5580 ft 106 kts 310°
2026-05-06 23:40 -34.23727 -58.74250 5577 ft 106 kts 311°
2026-05-06 23:40 -34.23284 -58.74977 5577 ft 106 kts 310°
2026-05-06 23:41 -34.22848 -58.75688 5579 ft 107 kts 311°
2026-05-06 23:41 -34.22415 -58.76420 5580 ft 107 kts 311°
2026-05-06 23:41 -34.21976 -58.77155 5581 ft 107 kts 311°
2026-05-06 23:41 -34.21534 -58.77898 5582 ft 108 kts 311°
2026-05-06 23:42 -34.21086 -58.78636 5585 ft 111 kts 311°
2026-05-06 23:42 -34.20614 -58.79402 5583 ft 114 kts 311°
2026-05-06 23:42 -34.20146 -58.80164 5579 ft 114 kts 311°
2026-05-06 23:42 -34.19675 -58.80931 5579 ft 113 kts 311°
2026-05-06 23:43 -34.19207 -58.81702 5574 ft 113 kts 311°
2026-05-06 23:43 -34.18740 -58.82458 5574 ft 112 kts 310°
2026-05-06 23:43 -34.18270 -58.83215 5571 ft 113 kts 311°
2026-05-06 23:43 -34.17802 -58.83976 5571 ft 112 kts 310°
2026-05-06 23:44 -34.17325 -58.84727 5564 ft 112 kts 311°
2026-05-06 23:44 -34.16857 -58.85477 5568 ft 112 kts 311°
2026-05-06 23:44 -34.16384 -58.86230 5564 ft 112 kts 311°
2026-05-06 23:44 -34.15915 -58.86978 5565 ft 112 kts 311°
2026-05-06 23:45 -34.15450 -58.87722 5564 ft 112 kts 311°
2026-05-06 23:45 -34.14985 -58.88480 5567 ft 111 kts 311°
2026-05-06 23:45 -34.14523 -58.89226 5573 ft 111 kts 311°
2026-05-06 23:45 -34.14054 -58.89977 5579 ft 110 kts 311°
2026-05-06 23:46 -34.13589 -58.90716 5581 ft 110 kts 311°
2026-05-06 23:46 -34.13129 -58.91449 5586 ft 110 kts 310°
2026-05-06 23:46 -34.12671 -58.92189 5583 ft 110 kts 310°
2026-05-06 23:46 -34.12206 -58.92937 5582 ft 110 kts 310°
2026-05-06 23:47 -34.11744 -58.93666 5583 ft 109 kts 311°
2026-05-06 23:47 -34.11290 -58.94400 5583 ft 109 kts 311°
2026-05-06 23:47 -34.10841 -58.95134 5586 ft 108 kts 311°
2026-05-06 23:47 -34.10392 -58.95863 5586 ft 108 kts 311°
2026-05-06 23:48 -34.09940 -58.96595 5587 ft 108 kts 311°
2026-05-06 23:48 -34.09500 -58.97321 5587 ft 107 kts 311°
2026-05-06 23:48 -34.09050 -58.98048 5583 ft 107 kts 311°
2026-05-06 23:48 -34.08757 -58.98523 5587 ft 107 kts 311°
2026-05-06 23:49 -34.08155 -58.99489 5582 ft 107 kts 310°
2026-05-06 23:49 -34.07705 -59.00202 5584 ft 107 kts 311°
2026-05-06 23:49 -34.07251 -59.00923 5582 ft 107 kts 311°
2026-05-06 23:49 -34.06805 -59.01641 5583 ft 108 kts 311°
2026-05-06 23:50 -34.06346 -59.02389 5586 ft 111 kts 310°
2026-05-06 23:50 -34.05402 -59.03895 5589 ft 115 kts 311°
2026-05-06 23:50 -34.04914 -59.04672 5588 ft 116 kts 311°
2026-05-06 23:51 -34.04422 -59.05443 5585 ft 117 kts 311°
2026-05-06 23:51 -34.03925 -59.06229 5590 ft 117 kts 310°
2026-05-06 23:51 -34.03440 -59.07011 5589 ft 118 kts 308°
2026-05-06 23:51 -34.02982 -59.07845 5590 ft 118 kts 308°
2026-05-06 23:52 -34.02524 -59.08662 5588 ft 118 kts 308°
2026-05-06 23:52 -34.02062 -59.09490 5585 ft 119 kts 308°
2026-05-06 23:52 -34.01600 -59.10319 5577 ft 119 kts 308°
2026-05-06 23:52 -34.01134 -59.11150 5572 ft 119 kts 308°
2026-05-06 23:53 -34.00669 -59.11981 5567 ft 120 kts 308°
2026-05-06 23:53 -34.00203 -59.12811 5564 ft 120 kts 308°
2026-05-06 23:53 -33.99730 -59.13643 5565 ft 119 kts 308°
2026-05-06 23:53 -33.99262 -59.14475 5566 ft 119 kts 308°
2026-05-06 23:54 -33.98798 -59.15302 5564 ft 119 kts 308°
2026-05-06 23:54 -33.98329 -59.16124 5567 ft 119 kts 308°
2026-05-06 23:54 -33.97858 -59.16963 5573 ft 119 kts 308°
2026-05-06 23:54 -33.97399 -59.17789 5579 ft 119 kts 308°
2026-05-06 23:55 -33.96940 -59.18615 5578 ft 119 kts 308°
2026-05-06 23:55 -33.96468 -59.19441 5576 ft 119 kts 308°
2026-05-06 23:55 -33.96002 -59.20264 5578 ft 119 kts 308°
2026-05-06 23:55 -33.95531 -59.21081 5581 ft 118 kts 308°
2026-05-06 23:56 -33.95069 -59.21894 5580 ft 118 kts 308°
2026-05-06 23:56 -33.94605 -59.22720 5583 ft 118 kts 308°
2026-05-06 23:56 -33.94141 -59.23540 5583 ft 119 kts 308°
2026-05-06 23:56 -33.93674 -59.24372 5583 ft 119 kts 308°
2026-05-06 23:57 -33.93214 -59.25190 5582 ft 119 kts 308°
2026-05-06 23:57 -33.92745 -59.26008 5582 ft 119 kts 308°
2026-05-06 23:57 -33.92279 -59.26841 5581 ft 119 kts 307°
2026-05-06 23:57 -33.91811 -59.27665 5581 ft 119 kts 308°
2026-05-06 23:58 -33.91340 -59.28500 5583 ft 119 kts 308°
2026-05-06 23:58 -33.90888 -59.29325 5580 ft 119 kts 308°
2026-05-06 23:58 -33.90415 -59.30158 5581 ft 119 kts 308°
2026-05-06 23:58 -33.89949 -59.30979 5584 ft 119 kts 308°
2026-05-06 23:59 -33.89483 -59.31801 5590 ft 119 kts 308°
2026-05-06 23:59 -33.89005 -59.32630 5591 ft 120 kts 308°
2026-05-06 23:59 -33.88530 -59.33465 5591 ft 120 kts 308°
2026-05-06 23:59 -33.88055 -59.34293 5590 ft 121 kts 308°
2026-05-07 00:00 -33.87568 -59.35135 5587 ft 121 kts 308°
2026-05-07 00:00 -33.87087 -59.35965 5588 ft 122 kts 308°
2026-05-07 00:00 -33.86599 -59.36801 5588 ft 122 kts 308°
2026-05-07 00:00 -33.86106 -59.37645 5586 ft 122 kts 308°
2026-05-07 00:01 -33.85621 -59.38483 5588 ft 122 kts 308°
2026-05-07 00:01 -33.85134 -59.39319 5586 ft 122 kts 308°
2026-05-07 00:01 -33.84638 -59.40158 5588 ft 122 kts 308°
2026-05-07 00:01 -33.84142 -59.40985 5585 ft 123 kts 308°
2026-05-07 00:02 -33.83647 -59.41830 5587 ft 123 kts 308°
2026-05-07 00:02 -33.83145 -59.42671 5585 ft 123 kts 308°
2026-05-07 00:02 -33.82655 -59.43508 5589 ft 123 kts 308°
2026-05-07 00:02 -33.82161 -59.44345 5588 ft 123 kts 308°
2026-05-07 00:03 -33.81662 -59.45181 5590 ft 122 kts 308°
2026-05-07 00:03 -33.81169 -59.46011 5589 ft 122 kts 308°
2026-05-07 00:03 -33.80675 -59.46849 5593 ft 122 kts 308°
2026-05-07 00:03 -33.80181 -59.47675 5592 ft 122 kts 308°
2026-05-07 00:04 -33.79681 -59.48510 5592 ft 122 kts 308°
2026-05-07 00:04 -33.79189 -59.49343 5592 ft 122 kts 308°
2026-05-07 00:04 -33.78690 -59.50164 5590 ft 122 kts 308°
2026-05-07 00:04 -33.78188 -59.50999 5593 ft 122 kts 308°
2026-05-07 00:05 -33.77695 -59.51828 5591 ft 122 kts 307°
2026-05-07 00:05 -33.77192 -59.52656 5591 ft 122 kts 308°
2026-05-07 00:05 -33.76690 -59.53473 5591 ft 122 kts 308°
2026-05-07 00:05 -33.76185 -59.54295 5591 ft 122 kts 308°
2026-05-07 00:06 -33.75680 -59.55125 5591 ft 122 kts 308°
2026-05-07 00:06 -33.75177 -59.55956 5589 ft 122 kts 308°
2026-05-07 00:06 -33.74676 -59.56789 5588 ft 122 kts 308°
2026-05-07 00:06 -33.74175 -59.57612 5585 ft 123 kts 308°
2026-05-07 00:07 -33.73671 -59.58442 5583 ft 123 kts 308°
2026-05-07 00:07 -33.73167 -59.59277 5582 ft 123 kts 307°
2026-05-07 00:07 -33.72666 -59.60105 5582 ft 122 kts 308°
2026-05-07 00:07 -33.72166 -59.60936 5581 ft 122 kts 308°
2026-05-07 00:08 -33.71666 -59.61763 5579 ft 123 kts 308°
2026-05-07 00:08 -33.71167 -59.62599 5581 ft 123 kts 308°
2026-05-07 00:08 -33.70665 -59.63438 5582 ft 123 kts 308°
2026-05-07 00:08 -33.70171 -59.64272 5584 ft 123 kts 308°
2026-05-07 00:09 -33.69677 -59.65111 5584 ft 123 kts 308°
2026-05-07 00:09 -33.69175 -59.65950 5587 ft 123 kts 308°
2026-05-07 00:09 -33.68674 -59.66798 5587 ft 124 kts 308°
2026-05-07 00:09 -33.68171 -59.67629 5590 ft 124 kts 309°
2026-05-07 00:10 -33.67660 -59.68473 5589 ft 124 kts 308°
2026-05-07 00:10 -33.67147 -59.69312 5588 ft 124 kts 309°
2026-05-07 00:10 -33.66633 -59.70149 5587 ft 125 kts 308°
2026-05-07 00:10 -33.66112 -59.70980 5585 ft 125 kts 309°
2026-05-07 00:11 -33.65592 -59.71824 5585 ft 125 kts 308°
2026-05-07 00:11 -33.65070 -59.72659 5584 ft 125 kts 308°
2026-05-07 00:11 -33.64549 -59.73494 5582 ft 125 kts 308°
2026-05-07 00:11 -33.64023 -59.74341 5577 ft 126 kts 308°
2026-05-07 00:12 -33.63499 -59.75187 5576 ft 126 kts 309°
2026-05-07 00:12 -33.62980 -59.76035 5577 ft 126 kts 308°
2026-05-07 00:12 -33.62466 -59.76878 5574 ft 126 kts 308°
2026-05-07 00:12 -33.61941 -59.77720 5575 ft 126 kts 308°
2026-05-07 00:13 -33.61411 -59.78569 5573 ft 126 kts 308°
2026-05-07 00:13 -33.60889 -59.79413 5573 ft 126 kts 308°
2026-05-07 00:13 -33.60366 -59.80257 5576 ft 126 kts 308°
2026-05-07 00:13 -33.59846 -59.81099 5580 ft 126 kts 308°
2026-05-07 00:14 -33.59323 -59.81954 5582 ft 126 kts 308°
2026-05-07 00:14 -33.58802 -59.82808 5585 ft 126 kts 308°
2026-05-07 00:14 -33.58279 -59.83649 5585 ft 126 kts 308°
2026-05-07 00:14 -33.57757 -59.84493 5585 ft 126 kts 308°
2026-05-07 00:15 -33.57238 -59.85340 5583 ft 126 kts 308°
2026-05-07 00:15 -33.56720 -59.86185 5582 ft 126 kts 308°
2026-05-07 00:15 -33.56193 -59.87031 5583 ft 126 kts 308°
2026-05-07 00:15 -33.55673 -59.87864 5584 ft 126 kts 308°
2026-05-07 00:16 -33.55145 -59.88708 5584 ft 126 kts 308°
2026-05-07 00:16 -33.54609 -59.89549 5581 ft 126 kts 308°
2026-05-07 00:16 -33.54081 -59.90379 5582 ft 126 kts 308°
2026-05-07 00:16 -33.53551 -59.91217 5580 ft 126 kts 308°
2026-05-07 00:17 -33.53022 -59.92056 5581 ft 126 kts 308°
2026-05-07 00:17 -33.52493 -59.92898 5583 ft 126 kts 308°
2026-05-07 00:17 -33.51965 -59.93742 5583 ft 126 kts 308°
2026-05-07 00:17 -33.51440 -59.94587 5583 ft 126 kts 308°
2026-05-07 00:18 -33.50918 -59.95425 5583 ft 126 kts 308°
2026-05-07 00:18 -33.50388 -59.96270 5584 ft 126 kts 309°
2026-05-07 00:18 -33.49864 -59.97104 5583 ft 126 kts 309°
2026-05-07 00:18 -33.49329 -59.97951 5581 ft 126 kts 308°
2026-05-07 00:19 -33.48793 -59.98778 5581 ft 127 kts 308°
2026-05-07 00:19 -33.48251 -59.99629 5582 ft 127 kts 308°
2026-05-07 00:19 -33.47713 -60.00463 5583 ft 126 kts 309°
2026-05-07 00:19 -33.47172 -60.01298 5583 ft 126 kts 309°
2026-05-07 00:20 -33.46643 -60.02130 5582 ft 126 kts 308°
2026-05-07 00:20 -33.46111 -60.02965 5579 ft 126 kts 308°
2026-05-07 00:20 -33.45574 -60.03798 5574 ft 127 kts 308°
2026-05-07 00:20 -33.45030 -60.04633 5568 ft 127 kts 309°
2026-05-07 00:21 -33.44485 -60.05471 5566 ft 127 kts 308°
2026-05-07 00:21 -33.43942 -60.06307 5563 ft 127 kts 309°
2026-05-07 00:21 -33.43372 -60.07115 5564 ft 127 kts 311°
2026-05-07 00:21 -33.42786 -60.07908 5567 ft 127 kts 311°
2026-05-07 00:22 -33.42195 -60.08707 5571 ft 127 kts 311°
2026-05-07 00:22 -33.41612 -60.09501 5572 ft 127 kts 311°
2026-05-07 00:22 -33.41032 -60.10303 5575 ft 127 kts 311°
2026-05-07 00:22 -33.40457 -60.11102 5577 ft 126 kts 311°
2026-05-07 00:23 -33.39881 -60.11888 5581 ft 126 kts 311°
2026-05-07 00:23 -33.39297 -60.12680 5582 ft 126 kts 311°
2026-05-07 00:23 -33.38707 -60.13469 5582 ft 126 kts 311°
2026-05-07 00:23 -33.38130 -60.14253 5579 ft 126 kts 311°
2026-05-07 00:24 -33.37550 -60.15034 5580 ft 126 kts 311°
2026-05-07 00:24 -33.36962 -60.15821 5580 ft 126 kts 311°
2026-05-07 00:24 -33.36380 -60.16602 5579 ft 126 kts 311°
2026-05-07 00:24 -33.35802 -60.17387 5583 ft 126 kts 311°
2026-05-07 00:25 -33.35213 -60.18173 5580 ft 126 kts 311°
2026-05-07 00:25 -33.34627 -60.18948 5580 ft 126 kts 311°
2026-05-07 00:25 -33.34036 -60.19733 5578 ft 126 kts 311°
2026-05-07 00:25 -33.33450 -60.20518 5579 ft 126 kts 311°
2026-05-07 00:26 -33.32863 -60.21301 5578 ft 126 kts 311°
2026-05-07 00:26 -33.32274 -60.22099 5579 ft 127 kts 311°
2026-05-07 00:26 -33.31688 -60.22890 5577 ft 127 kts 311°
2026-05-07 00:26 -33.31108 -60.23674 5577 ft 127 kts 311°
2026-05-07 00:27 -33.30522 -60.24473 5581 ft 127 kts 311°
2026-05-07 00:27 -33.29929 -60.25272 5579 ft 128 kts 311°
2026-05-07 00:27 -33.29336 -60.26066 5580 ft 128 kts 311°
2026-05-07 00:27 -33.28744 -60.26857 5579 ft 128 kts 311°
2026-05-07 00:28 -33.28150 -60.27658 5580 ft 128 kts 311°
2026-05-07 00:28 -33.27557 -60.28455 5579 ft 128 kts 311°
2026-05-07 00:28 -33.26971 -60.29242 5578 ft 128 kts 311°
2026-05-07 00:28 -33.26372 -60.30039 5577 ft 128 kts 311°
2026-05-07 00:29 -33.25780 -60.30830 5575 ft 128 kts 311°
2026-05-07 00:29 -33.25184 -60.31623 5546 ft 130 kts 311°
2026-05-07 00:30 -33.23237 -60.34219 5066 ft 150 kts 311°
2026-05-07 00:30 -33.22538 -60.35153 4875 ft 154 kts 311°
2026-05-07 00:30 -33.21813 -60.36124 4677 ft 157 kts 311°
2026-05-07 00:30 -33.21086 -60.37107 4478 ft 158 kts 311°
2026-05-07 00:31 -33.20371 -60.38095 4280 ft 158 kts 311°
2026-05-07 00:31 -33.19658 -60.39082 4072 ft 155 kts 311°
2026-05-07 00:31 -33.19038 -60.40140 3869 ft 154 kts 304°
2026-05-07 00:31 -33.18483 -60.41219 3667 ft 152 kts 304°
2026-05-07 00:32 -33.17940 -60.42290 3468 ft 151 kts 304°
2026-05-07 00:32 -33.17399 -60.43354 3267 ft 150 kts 304°
2026-05-07 00:32 -33.16861 -60.44429 3062 ft 150 kts 304°
2026-05-07 00:32 -33.16344 -60.45477 2989 ft 143 kts 304°
2026-05-07 00:33 -33.15852 -60.46471 2975 ft 136 kts 304°
2026-05-07 00:33 -33.15391 -60.47454 2979 ft 135 kts 300°
2026-05-07 00:33 -33.14999 -60.48474 2976 ft 134 kts 299°
2026-05-07 00:33 -33.14607 -60.49487 2972 ft 134 kts 299°
2026-05-07 00:34 -33.14215 -60.50493 2967 ft 133 kts 299°
2026-05-07 00:34 -33.13823 -60.51490 2971 ft 133 kts 299°
2026-05-07 00:34 -33.13436 -60.52491 2975 ft 132 kts 299°
2026-05-07 00:34 -33.13052 -60.53479 2974 ft 132 kts 299°
2026-05-07 00:35 -33.12666 -60.54481 2974 ft 132 kts 299°
2026-05-07 00:35 -33.12289 -60.55471 2971 ft 131 kts 299°
2026-05-07 00:35 -33.11975 -60.56496 2975 ft 133 kts 291°
2026-05-07 00:35 -33.11724 -60.57560 2968 ft 133 kts 291°
2026-05-07 00:36 -33.11473 -60.58633 2971 ft 133 kts 291°
2026-05-07 00:36 -33.11223 -60.59693 2969 ft 133 kts 291°
2026-05-07 00:36 -33.10970 -60.60757 2965 ft 133 kts 290°
2026-05-07 00:36 -33.10782 -60.61852 2964 ft 134 kts 287°
2026-05-07 00:37 -33.10603 -60.62944 2968 ft 134 kts 287°
2026-05-07 00:37 -33.10426 -60.64032 2965 ft 134 kts 287°
2026-05-07 00:37 -33.10242 -60.65132 2962 ft 134 kts 288°
2026-05-07 00:37 -33.10052 -60.66216 2969 ft 134 kts 288°
2026-05-07 00:38 -33.09947 -60.67331 2972 ft 136 kts 282°
2026-05-07 00:38 -33.09879 -60.68458 2969 ft 137 kts 281°
2026-05-07 00:38 -33.09808 -60.69602 2966 ft 137 kts 281°
2026-05-07 00:38 -33.09736 -60.70739 2968 ft 137 kts 281°
2026-05-07 00:39 -33.09679 -60.71872 2968 ft 138 kts 279°
2026-05-07 00:39 -33.09645 -60.73031 2966 ft 139 kts 279°
2026-05-07 00:39 -33.09610 -60.74174 2971 ft 139 kts 279°
2026-05-07 00:39 -33.09575 -60.75333 2970 ft 140 kts 279°
2026-05-07 00:40 -33.09542 -60.76495 2971 ft 140 kts 279°
2026-05-07 00:40 -33.09526 -60.77657 2968 ft 141 kts 278°
2026-05-07 00:40 -33.09510 -60.78825 2971 ft 141 kts 278°
2026-05-07 00:40 -33.09494 -60.79995 2963 ft 141 kts 278°
2026-05-07 00:41 -33.09488 -60.81161 2981 ft 140 kts 277°
2026-05-07 00:41 -33.09295 -60.82241 2983 ft 131 kts 307°
2026-05-07 00:41 -33.08546 -60.82827 2937 ft 131 kts 334°
2026-05-07 00:41 -33.07675 -60.83149 2822 ft 134 kts 348°
2026-05-07 00:42 -33.06730 -60.83155 2698 ft 136 kts 358°
2026-05-07 00:42 -33.05780 -60.82973 2527 ft 139 kts
2026-05-07 00:42 -33.04821 -60.82751 2338 ft 140 kts
2026-05-07 00:42 -33.03874 -60.82496 2124 ft 141 kts
2026-05-07 00:43 -33.02926 -60.82250 1984 ft 136 kts
2026-05-07 00:43 -33.02054 -60.81959 1972 ft 124 kts
2026-05-07 00:43 -33.01276 -60.81587 1945 ft 115 kts 14°
2026-05-07 00:43 -33.00653 -60.81256 1902 ft 86 kts 15°
2026-05-07 00:44 -33.00131 -60.80968 1767 ft 81 kts 13°
2026-05-07 00:44 -32.99606 -60.80690 1638 ft 82 kts 12°
2026-05-07 00:44 -32.99087 -60.80438 1541 ft 79 kts
2026-05-07 00:44 -32.98568 -60.80244 1429 ft 79 kts
2026-05-07 00:45 -32.98035 -60.80110 1331 ft 77 kts
2026-05-07 00:45 -32.97502 -60.79999 1226 ft 76 kts
2026-05-07 00:45 -32.96966 -60.79906 1092 ft 78 kts
2026-05-07 00:45 -32.96432 -60.79818 975 ft 79 kts
2026-05-07 00:46 -32.95879 -60.79699 868 ft 81 kts
2026-05-07 00:46 -32.95338 -60.79577 792 ft 76 kts
2026-05-07 00:46 -32.94836 -60.79470 716 ft 73 kts
2026-05-07 00:46 -32.94322 -60.79369 627 ft 74 kts
2026-05-07 00:47 -32.93807 -60.79254 559 ft 73 kts
2026-05-07 00:47 -32.93322 -60.79137 469 ft 70 kts
2026-05-07 00:47 -32.92829 -60.79034 347 ft 74 kts
2026-05-07 00:47 -32.92315 -60.78913 253 ft 76 kts
2026-05-07 00:48 -32.91788 -60.78800 121 ft 73 kts 11°
2026-05-07 00:48 -32.91376 -60.78701 87 ft 49 kts 11°
2026-05-07 00:48 -32.91085 -60.78634 89 ft 33 kts
2026-05-07 00:48 -32.90935 -60.78549 89 ft 12 kts 100°
2026-05-07 00:49 -32.90993 -60.78519 88 ft 14 kts 166°
2026-05-07 00:49 -32.91104 -60.78456 87 ft 20 kts 144°
2026-05-07 00:49 -32.91231 -60.78335 85 ft 26 kts 140°
2026-05-07 00:49 -32.91372 -60.78202 82 ft 25 kts 141°
2026-05-07 00:50 -32.91515 -60.78201 82 ft 20 kts 204°
2026-05-07 00:50 -32.91638 -60.78255 82 ft 17 kts 200°
2026-05-07 00:50 -32.91718 -60.78268 81 ft 9 kts 153°
2026-05-07 00:50 -32.91779 -60.78236 81 ft 9 kts 159°
2026-05-07 00:51 -32.91818 -60.78200 81 ft 3 kts 39°
2026-05-07 00:51 -32.91817 -60.78200 81 ft 0 kts 34°